EA8CHC Sevilla ES current weather conditions

sailwx.info

Wind from 086 at 3 knots gusting 6

Air temperature 13.3° C
Dewpoint 4.2° C

Last reported at 2015-Mar-05 01:47 UTC.
Time now 2015-Mar-05 02:38 UTC

Location: N 37°26' W 006°03'.
View on Google Maps.

See reports from other nearby stations

  
Tides and Currents Weather Stations Pressure Air Temp Water Temp Dewpoint Dewpoint Depression Visibility Wind Speed Wind Dir Waves Ship Positions
date/time (UTC)wind fromknots sea level pressurealtimeterstation pressurevisibilityair tempwater tempwave heightnotes
2015-Mar-05 01:47 086 3 gusting 6 13.3
2015-Mar-05 01:42 095 2 gusting 5 13.3
2015-Mar-05 01:37 103 2 gusting 5 13.3
2015-Mar-05 01:32 103 1 gusting 5 13.3
2015-Mar-05 01:27 049 1 gusting 3 13.9
2015-Mar-05 01:22 049 1 gusting 4 13.9
2015-Mar-05 01:17 049 1 gusting 4 13.9
2015-Mar-05 01:12 049 1 gusting 4 13.9
2015-Mar-05 01:07 049 1 gusting 4 13.9
2015-Mar-05 01:02 049 0 gusting 2 13.9
2015-Mar-05 00:57 049 13.9
2015-Mar-05 00:52 049 13.9
2015-Mar-05 00:47 049 0 gusting 3 13.9
2015-Mar-05 00:42 049 1 gusting 3 13.9
2015-Mar-05 00:37 049 0 gusting 5 13.9
2015-Mar-05 00:32 049 1 gusting 5 13.9
2015-Mar-05 00:27 049 2 gusting 5 13.9
2015-Mar-05 00:22 049 2 gusting 5 13.9
2015-Mar-05 00:17 049 1 gusting 8 13.9
2015-Mar-05 00:12 049 2 gusting 8 13.9
2015-Mar-05 00:07 053 3 gusting 8 13.9
2015-Mar-05 00:02 030 3 gusting 8 13.9
2015-Mar-04 23:57 048 3 gusting 6 13.9
2015-Mar-04 23:52 054 3 gusting 5 13.9
2015-Mar-04 23:47 052 2 gusting 4 14.4
2015-Mar-04 23:42 054 2 gusting 5 14.4
2015-Mar-04 23:37 054 2 gusting 5 14.4
2015-Mar-04 23:32 055 3 gusting 5 15.0
2015-Mar-04 23:27 055 3 gusting 5 15.0
2015-Mar-04 23:22 065 2 gusting 4 15.6
2015-Mar-04 23:17 076 1 gusting 4 15.6
2015-Mar-04 23:12 088 0 gusting 2 15.6
2015-Mar-04 23:07 088 0 gusting 0 15.6
2015-Mar-04 23:02 088 15.6
2015-Mar-04 22:57 088 15.6
2015-Mar-04 22:52 088 15.6
2015-Mar-04 22:47 088 16.1
2015-Mar-04 22:42 088 16.1
2015-Mar-04 22:37 088 0 gusting 3 16.1
2015-Mar-04 22:32 088 1 gusting 3 16.1
2015-Mar-04 22:27 053 1 gusting 3 16.7
2015-Mar-04 22:22 053 1 gusting 2 16.7
2015-Mar-04 22:17 024 0 gusting 2 16.7
2015-Mar-04 22:12 024 0 gusting 2 16.7
2015-Mar-04 22:07 024 0 gusting 2 16.7
2015-Mar-04 22:02 024 0 gusting 1 16.7
2015-Mar-04 21:57 024 16.7
2015-Mar-04 21:52 024 16.7
2015-Mar-04 21:47 024 17.2
2015-Mar-04 21:42 024 17.2
2015-Mar-04 21:37 024 0 gusting 4 17.2
2015-Mar-04 21:32 024 1 gusting 4 17.2
2015-Mar-04 21:27 024 2 gusting 4 17.2
2015-Mar-04 21:22 025 1 gusting 4 17.2
2015-Mar-04 21:17 355 1 gusting 4 17.2
2015-Mar-04 21:12 345 1 gusting 4 17.2
2015-Mar-04 21:07 340 1 gusting 4 17.2
2015-Mar-04 21:02 340 1 gusting 4 17.2
2015-Mar-04 20:57 344 0 gusting 3 17.2
2015-Mar-04 20:52 344 1 gusting 3 17.8
2015-Mar-04 20:47 344 1 gusting 3 17.8
2015-Mar-04 20:42 355 1 gusting 5 17.8
2015-Mar-04 20:37 336 2 gusting 6 17.8
2015-Mar-04 20:32 344 2 gusting 6 17.8
2015-Mar-04 20:27 005 3 gusting 6 18.3
2015-Mar-04 20:22 18.3
2015-Mar-04 20:17 340 2 gusting 5 18.3
2015-Mar-04 20:12 005 2 gusting 4 18.3
2015-Mar-04 20:07 18.3
2015-Mar-04 20:02 009 2 gusting 4 18.3
2015-Mar-04 19:57 343 2 gusting 5 18.9
2015-Mar-04 19:52 350 2 gusting 5 18.9
2015-Mar-04 19:47 18.9
2015-Mar-04 19:42 355 2 gusting 5 18.9
2015-Mar-04 19:37 005 2 gusting 3 18.9
2015-Mar-04 19:32 009 2 gusting 3 19.4
2015-Mar-04 19:27 012 2 gusting 3 19.4
2015-Mar-04 19:22 013 2 gusting 3 19.4
2015-Mar-04 19:17 013 2 gusting 3 19.4
2015-Mar-04 19:12 069 0 gusting 2 20.0
2015-Mar-04 19:07 069 20.0
2015-Mar-04 19:02 069 20.0
2015-Mar-04 18:57 069 0 gusting 2 20.6
2015-Mar-04 18:52 069 0 gusting 2 20.6
2015-Mar-04 18:47 069 1 gusting 2 20.6
2015-Mar-04 18:42 069 1 gusting 2 20.6
2015-Mar-04 18:37 069 21.1
2015-Mar-04 18:32 069 21.1
2015-Mar-04 18:27 069 21.1
2015-Mar-04 18:22 069 21.1
2015-Mar-04 18:17 069 21.7
2015-Mar-04 18:12 069 0 gusting 2 21.7
2015-Mar-04 18:07 069 0 gusting 2 21.7
2015-Mar-04 18:02 069 0 gusting 3 21.7
2015-Mar-04 17:57 070 0 gusting 3 21.7
2015-Mar-04 17:52 070 1 gusting 3 21.7
2015-Mar-04 17:47 057 1 gusting 3 21.7
2015-Mar-04 17:42 057 1 gusting 4 21.7
2015-Mar-04 17:37 057 2 gusting 6 22.2
2015-Mar-04 17:32 076 2 gusting 6 22.2
2015-Mar-04 17:27 068 2 gusting 6 22.2
2015-Mar-04 17:22 086 2 gusting 6 22.2
2015-Mar-04 17:17 088 3 gusting 6 22.2
2015-Mar-04 17:12 080 3 gusting 7 22.2
2015-Mar-04 17:07 102 4 gusting 7 22.2
2015-Mar-04 17:02 082 4 gusting 7 22.2
2015-Mar-04 16:57 113 3 gusting 7 22.2
2015-Mar-04 16:52 055 3 gusting 7 22.2
2015-Mar-04 16:47 080 4 gusting 8 22.2
2015-Mar-04 16:42 098 3 gusting 12 22.2
2015-Mar-04 16:37 067 5 gusting 12 22.2
2015-Mar-04 16:32 069 6 gusting 12 22.2
2015-Mar-04 16:27 072 6 gusting 12 22.2
2015-Mar-04 16:22 061 5 gusting 12 22.8
2015-Mar-04 16:17 093 5 gusting 12 22.2
2015-Mar-04 16:12 074 6 gusting 12 22.2
2015-Mar-04 16:07 123 6 gusting 12 22.2
2015-Mar-04 16:02 086 6 gusting 16 22.2
2015-Mar-04 15:57 098 6 gusting 16 22.8
2015-Mar-04 15:52 081 7 gusting 16 22.2
2015-Mar-04 15:47 064 7 gusting 15 22.2
2015-Mar-04 15:42 057 7 gusting 15 22.2
2015-Mar-04 15:37 064 9 gusting 15 22.2
2015-Mar-04 15:32 046 9 gusting 15 22.2
2015-Mar-04 15:27 059 8 gusting 14 22.2
2015-Mar-04 15:22 072 7 gusting 14 22.2
2015-Mar-04 15:17 103 7 gusting 16 22.2
2015-Mar-04 15:12 061 8 gusting 16 22.2
2015-Mar-04 15:07 065 9 gusting 16 22.2
2015-Mar-04 15:02 079 9 gusting 14 22.2
2015-Mar-04 14:57 080 8 gusting 14 22.2
2015-Mar-04 14:52 089 8 gusting 14 22.2
2015-Mar-04 14:47 039 7 gusting 14 22.2
2015-Mar-04 14:42 057 7 gusting 13 22.2
2015-Mar-04 14:37 066 7 gusting 13 22.2
2015-Mar-04 14:32 078 6 gusting 13 22.2
2015-Mar-04 14:27 086 5 gusting 12 22.2
2015-Mar-04 14:22 037 4 gusting 12 22.2
2015-Mar-04 14:17 071 5 gusting 12 22.2
2015-Mar-04 14:12 068 6 gusting 14 22.2
2015-Mar-04 14:07 065 6 gusting 14 21.7
2015-Mar-04 14:02 055 6 gusting 14 21.7
2015-Mar-04 13:57 064 6 gusting 13 21.7
2015-Mar-04 13:52 068 6 gusting 9 21.7
2015-Mar-04 13:47 074 5 gusting 9 21.7
2015-Mar-04 13:42 020 5 gusting 9 21.7
2015-Mar-04 13:37 015 5 gusting 8 21.7
2015-Mar-04 13:32 048 4 gusting 8 21.1
2015-Mar-04 13:27 037 4 gusting 8 21.1
2015-Mar-04 13:22 032 4 gusting 10 21.1
2015-Mar-04 13:17 055 4 gusting 10 20.6
2015-Mar-04 13:12 014 4 gusting 10 20.6
2015-Mar-04 13:07 053 5 gusting 10 20.6
2015-Mar-04 13:02 063 5 gusting 10 20.6
2015-Mar-04 12:57 071 6 gusting 10 20.0
2015-Mar-04 12:52 051 6 gusting 9 20.0
2015-Mar-04 12:47 090 4 gusting 9 20.0
2015-Mar-04 12:42 078 4 gusting 12 20.0
2015-Mar-04 12:37 059 4 gusting 12 20.0
2015-Mar-04 12:32 092 4 gusting 12 20.0
2015-Mar-04 12:27 080 4 gusting 7 19.4
2015-Mar-04 12:22 097 4 gusting 7 19.4
2015-Mar-04 12:17 046 2 gusting 6 19.4
2015-Mar-04 12:12 044 2 gusting 7 18.9
2015-Mar-04 12:07 084 3 gusting 7 18.3
2015-Mar-04 12:02 052 3 gusting 7 18.3
2015-Mar-04 11:57 075 2 gusting 9 18.3
2015-Mar-04 11:52 078 3 gusting 9 17.8
2015-Mar-04 11:47 084 3 gusting 9 17.8
2015-Mar-04 11:42 063 2 gusting 6 17.8
2015-Mar-04 11:37 075 2 gusting 5 17.2
2015-Mar-04 11:32 054 2 gusting 5 17.2
2015-Mar-04 11:27 055 2 gusting 6 17.2
2015-Mar-04 11:22 020 2 gusting 6 16.7
2015-Mar-04 11:17 051 3 gusting 6 16.7
2015-Mar-04 11:12 043 3 gusting 6 16.7
2015-Mar-04 11:07 019 3 gusting 6 16.1
2015-Mar-04 11:02 058 2 gusting 6 16.1
2015-Mar-04 10:57 090 1 gusting 4 15.6
2015-Mar-04 10:52 048 1 gusting 4 15.6
2015-Mar-04 10:47 048 2 gusting 4 15.0
2015-Mar-04 10:42 065 2 gusting 5 14.4
2015-Mar-04 10:37 053 1 gusting 6 14.4
2015-Mar-04 10:32 084 2 gusting 6 14.4
2015-Mar-04 10:27 084 3 gusting 6 13.9
2015-Mar-04 10:22 099 1 gusting 4 13.3
2015-Mar-04 10:17 101 0 gusting 3 13.3
2015-Mar-04 10:12 100 0 gusting 3 13.3
2015-Mar-04 10:07 069 0 gusting 4 12.8
2015-Mar-04 10:02 069 1 gusting 4 12.8
2015-Mar-04 09:57 096 0 gusting 4 12.8
2015-Mar-04 09:52 096 1 gusting 4 12.2
2015-Mar-04 09:47 057 2 gusting 5 12.2
2015-Mar-04 09:42 057 2 gusting 5 12.2
2015-Mar-04 09:37 071 1 gusting 5 11.7
2015-Mar-04 09:32 099 1 gusting 6 11.7
2015-Mar-04 09:27 099 2 gusting 6 11.7
2015-Mar-04 09:22 097 2 gusting 6 11.7
2015-Mar-04 09:17 043 1 gusting 6 11.7
2015-Mar-04 09:12 045 1 gusting 6 11.1
2015-Mar-04 09:07 055 1 gusting 4 11.1
2015-Mar-04 09:02 055 1 gusting 6 11.1
2015-Mar-04 08:57 055 1 gusting 6 11.1
2015-Mar-04 08:52 056 1 gusting 6 11.1
2015-Mar-04 08:47 055 1 gusting 4 11.1
2015-Mar-04 08:42 078 1 gusting 5 10.6
2015-Mar-04 08:37 078 2 gusting 5 10.6
2015-Mar-04 08:32 078 2 gusting 5 10.6
2015-Mar-04 08:27 049 1 gusting 5 10.6
2015-Mar-04 08:22 036 1 gusting 5 10.6
2015-Mar-04 08:17 067 1 gusting 3 11.1
2015-Mar-04 08:12 067 1 gusting 3 10.6
2015-Mar-04 08:07 030 0 gusting 1 10.6
2015-Mar-04 08:02 030 10.6
2015-Mar-04 07:57 030 10.6
2015-Mar-04 07:52 030 10.6
2015-Mar-04 07:47 030 0 gusting 3 10.6
2015-Mar-04 07:42 030 0 gusting 4 10.6
2015-Mar-04 07:37 030 1 gusting 4 10.6
2015-Mar-04 07:32 030 1 gusting 4 10.6
2015-Mar-04 07:27 032 1 gusting 3 10.6
2015-Mar-04 07:22 061 1 gusting 3 10.6
2015-Mar-04 07:17 047 1 gusting 4 10.6
2015-Mar-04 07:12 054 1 gusting 4 11.1
2015-Mar-04 07:07 009 0 gusting 2 11.1
2015-Mar-04 07:02 009 1 gusting 2 11.1
2015-Mar-04 06:57 009 0 gusting 3 11.1
2015-Mar-04 06:52 009 11.1
2015-Mar-04 06:47 009 0 gusting 5 11.1
2015-Mar-04 06:42 009 2 gusting 5 11.7
2015-Mar-04 06:37 009 3 gusting 5 11.7
2015-Mar-04 06:32 010 3 gusting 5 11.7
2015-Mar-04 06:27 009 1 gusting 4 11.7
2015-Mar-04 06:22 094 11.7
2015-Mar-04 06:17 094 11.7
2015-Mar-04 06:12 094 11.7
2015-Mar-04 06:07 094 11.7
2015-Mar-04 06:02 094 11.7
2015-Mar-04 05:57 094 0 gusting 4 11.7
2015-Mar-04 05:52 094 0 gusting 4 11.7
2015-Mar-04 05:47 094 0 11.7
2015-Mar-04 05:42 094 11.7
2015-Mar-04 05:37 094 11.7
2015-Mar-04 05:32 094 11.7
2015-Mar-04 05:27 094 0 gusting 4 11.7
2015-Mar-04 05:22 094 1 gusting 4 11.7
2015-Mar-04 05:17 094 1 gusting 4 11.7
2015-Mar-04 05:12 094 1 gusting 4 11.7
2015-Mar-04 05:07 146 11.7
2015-Mar-04 05:02 146 11.7
2015-Mar-04 04:57 146 11.7
2015-Mar-04 04:47 146 11.7
2015-Mar-04 04:42 146 11.7
2015-Mar-04 04:37 146 11.7
2015-Mar-04 04:32 146 11.7
2015-Mar-04 04:27 146 11.7
2015-Mar-04 04:22 146 11.7
2015-Mar-04 04:17 146 11.7
2015-Mar-04 04:12 146 11.7
2015-Mar-04 04:07 146 11.7
2015-Mar-04 04:02 146 11.7
2015-Mar-04 03:57 146 11.7
2015-Mar-04 03:52 146 11.7
2015-Mar-04 03:47 146 11.7
2015-Mar-04 03:42 146 11.7
2015-Mar-04 03:37 146 0 gusting 4 11.7
2015-Mar-04 03:32 146 0 gusting 4 11.7
2015-Mar-04 03:27 146 0 gusting 4 11.7
2015-Mar-04 03:22 146 0 gusting 4 11.7
2015-Mar-04 03:17 146 0 gusting 4 11.7
2015-Mar-04 03:12 146 1 gusting 4 11.7
2015-Mar-04 03:07 146 1 gusting 5 11.7
2015-Mar-04 03:02 146 1 gusting 5 11.7
2015-Mar-04 02:57 146 2 gusting 6 11.7
2015-Mar-04 02:52 146 2 gusting 6 11.7
2015-Mar-04 02:47 146 1 gusting 4 11.7
2015-Mar-04 02:42 146 0 gusting 4 11.7
2015-Mar-04 02:37 146 0 gusting 4 11.7
2015-Mar-04 02:32 146 0 gusting 3 11.7
2015-Mar-04 02:27 146 11.7
2015-Mar-04 02:22 146 0 gusting 4 12.2
2015-Mar-04 02:17 146 0 gusting 4 12.2
2015-Mar-04 02:12 146 1 gusting 4 12.2
2015-Mar-04 02:07 146 1 gusting 4 12.2
2015-Mar-04 02:02 146 0 gusting 1 12.2
2015-Mar-04 01:57 146 12.2
2015-Mar-04 01:52 146 0 gusting 4 12.2
2015-Mar-04 01:47 146 0 gusting 6 12.2
2015-Mar-04 01:42 146 1 gusting 6 12.2
2015-Mar-04 01:37 146 2 gusting 6 12.2
2015-Mar-04 01:32 146 2 gusting 6 12.2
2015-Mar-04 01:27 144 1 gusting 5 12.2
2015-Mar-04 01:22 138 1 gusting 5 12.8
2015-Mar-04 01:17 134 0 gusting 5 12.8
2015-Mar-04 01:12 139 0 gusting 6 12.8
2015-Mar-04 01:07 138 2 gusting 6 12.8
2015-Mar-04 01:02 140 3 gusting 6 12.8
2015-Mar-04 00:57 148 2 gusting 5 12.8
2015-Mar-04 00:52 148 2 gusting 6 12.8
2015-Mar-04 00:47 148 3 gusting 6 12.8
2015-Mar-04 00:42 150 3 gusting 6 12.8
2015-Mar-04 00:37 146 2 gusting 5 12.8
2015-Mar-04 00:32 158 1 gusting 4 12.8
2015-Mar-04 00:27 220 0 gusting 2 12.8
2015-Mar-04 00:22 220 12.8
2015-Mar-04 00:17 220 12.8
2015-Mar-04 00:12 220 12.8
2015-Mar-04 00:07 220 12.8
2015-Mar-04 00:02 220 13.3
2015-Mar-03 23:57 220 0 gusting 1 13.3
2015-Mar-03 23:52 220 0 gusting 1 13.3
2015-Mar-03 23:47 220 13.3
2015-Mar-03 23:42 220 13.3
2015-Mar-03 23:37 220 13.3
2015-Mar-03 23:32 220 13.3
2015-Mar-03 23:27 220 13.3
2015-Mar-03 23:22 220 13.9
2015-Mar-03 23:17 220 13.9
2015-Mar-03 23:12 220 13.9
2015-Mar-03 23:07 220 13.9
2015-Mar-03 23:02 220 13.9
2015-Mar-03 22:57 220 0 gusting 2 13.9
2015-Mar-03 22:52 220 0 gusting 2 13.9
2015-Mar-03 22:47 220 14.4
2015-Mar-03 22:42 220 0 gusting 2 14.4
2015-Mar-03 22:37 221 0 gusting 2 14.4
2015-Mar-03 22:32 220 0 gusting 2 14.4
2015-Mar-03 22:27 220 0 gusting 2 15.0
2015-Mar-03 22:22 265 15.0
2015-Mar-03 22:17 265 15.0
2015-Mar-03 22:12 15.0
2015-Mar-03 22:07 15.0
2015-Mar-03 22:02 15.0
2015-Mar-03 21:57 15.0
2015-Mar-03 21:52 15.0
2015-Mar-03 21:47 15.6
2015-Mar-03 21:42 15.6
2015-Mar-03 21:37 15.6
2015-Mar-03 21:32 015 3 gusting 5 15.6
2015-Mar-03 21:27 355 2 gusting 4 15.6
2015-Mar-03 21:22 178 0 gusting 3 16.1
2015-Mar-03 21:17 178 0 gusting 4 16.1
2015-Mar-03 21:12 178 0 gusting 4 16.1
2015-Mar-03 21:07 178 0 gusting 4 16.7
2015-Mar-03 21:02 178 16.7
2015-Mar-03 20:57 242 0 gusting 6 16.7
2015-Mar-03 20:52 242 1 gusting 6 17.2
2015-Mar-03 20:47 242 2 gusting 9 17.2
2015-Mar-03 20:42 234 3 gusting 9 17.2
2015-Mar-03 20:37 239 5 gusting 9 17.2
2015-Mar-03 20:32 217 5 gusting 8 17.2
2015-Mar-03 20:27 232 4 gusting 8 17.2
2015-Mar-03 20:22 215 3 gusting 8 17.2
2015-Mar-03 20:17 235 3 gusting 7 17.2
2015-Mar-03 20:12 238 4 gusting 7 16.7
2015-Mar-03 20:07 235 4 gusting 8 17.2
2015-Mar-03 20:02 210 3 gusting 8 17.2
2015-Mar-03 19:57 227 3 gusting 8 17.2
2015-Mar-03 19:52 209 3 gusting 8 17.2
2015-Mar-03 19:47 196 4 gusting 8 17.2
2015-Mar-03 19:42 197 4 gusting 8 17.8
2015-Mar-03 19:37 202 4 gusting 8 17.8
2015-Mar-03 19:32 207 4 gusting 8 17.8
2015-Mar-03 19:27 202 4 gusting 7 17.8
2015-Mar-03 19:22 201 4 gusting 9 17.8
2015-Mar-03 19:17 213 4 gusting 9 18.3
2015-Mar-03 19:12 223 5 gusting 9 18.3
2015-Mar-03 19:07 194 4 gusting 9 18.3
2015-Mar-03 19:02 213 4 gusting 9 18.3
2015-Mar-03 18:57 193 4 gusting 7 18.9
2015-Mar-03 18:52 186 4 gusting 7 18.9
2015-Mar-03 18:47 223 3 gusting 7 19.4
2015-Mar-03 18:42 194 3 gusting 6 19.4
2015-Mar-03 18:37 197 2 gusting 6 20.0
2015-Mar-03 18:32 210 1 gusting 5 20.0
2015-Mar-03 18:27 211 1 gusting 5 20.6
2015-Mar-03 18:22 217 2 gusting 5 20.6
2015-Mar-03 18:17 219 2 gusting 5 20.6
2015-Mar-03 18:12 223 2 gusting 5 20.6
2015-Mar-03 18:07 232 2 gusting 6 21.1
2015-Mar-03 18:02 231 1 gusting 6 21.1
2015-Mar-03 17:57 236 2 gusting 6 21.1
2015-Mar-03 17:52 240 3 gusting 6 21.1
2015-Mar-03 17:47 229 1 gusting 6 21.7
2015-Mar-03 17:42 236 2 gusting 6 21.7
2015-Mar-03 17:37 258 2 gusting 5 21.7
2015-Mar-03 17:32 257 2 gusting 6 21.7
2015-Mar-03 17:27 251 2 gusting 6 21.7
2015-Mar-03 17:22 219 3 gusting 7 21.7
2015-Mar-03 17:17 213 4 gusting 7 21.7
2015-Mar-03 17:12 246 4 gusting 6 21.7
2015-Mar-03 17:07 246 3 gusting 6 21.7
2015-Mar-03 17:02 242 3 gusting 6 21.7
2015-Mar-03 16:57 244 3 gusting 6 21.7
2015-Mar-03 16:52 266 3 gusting 6 21.7
2015-Mar-03 16:47 240 3 gusting 6 21.7
2015-Mar-03 16:42 222 3 gusting 7 21.7
2015-Mar-03 16:37 252 3 gusting 7 21.7
2015-Mar-03 16:32 237 3 gusting 7 21.7
2015-Mar-03 16:27 249 3 gusting 6 21.7
2015-Mar-03 16:22 239 3 gusting 6 22.2
2015-Mar-03 16:17 190 3 gusting 6 22.2
2015-Mar-03 16:12 209 2 gusting 5 22.2
2015-Mar-03 16:07 251 2 gusting 6 22.2
2015-Mar-03 16:02 248 2 gusting 6 21.7
2015-Mar-03 15:57 244 2 gusting 6 21.7
2015-Mar-03 15:52 224 2 gusting 6 21.7
2015-Mar-03 15:47 211 3 gusting 6 21.7
2015-Mar-03 15:42 209 2 gusting 6 21.7
2015-Mar-03 15:37 238 1 gusting 6 21.7
2015-Mar-03 15:32 252 1 gusting 7 21.7
2015-Mar-03 15:27 254 2 gusting 7 21.1
2015-Mar-03 15:22 257 4 gusting 7 21.1
2015-Mar-03 15:17 229 2 gusting 5 21.1
2015-Mar-03 15:12 218 1 gusting 6 21.1
2015-Mar-03 15:07 225 2 gusting 7 21.1
2015-Mar-03 15:02 261 3 gusting 7 20.6
2015-Mar-03 14:57 182 4 gusting 7 20.6
2015-Mar-03 14:52 211 2 gusting 8 20.6
2015-Mar-03 14:47 118 3 gusting 8 20.6
2015-Mar-03 14:42 173 4 gusting 8 20.6
2015-Mar-03 14:37 133 4 gusting 6 20.6
2015-Mar-03 14:32 161 4 gusting 6 20.0
2015-Mar-03 14:27 161 3 gusting 6 20.6
2015-Mar-03 14:22 133 2 gusting 6 20.6
2015-Mar-03 14:17 144 1 gusting 6 20.6
2015-Mar-03 14:12 225 2 gusting 6 20.0
2015-Mar-03 14:07 240 2 gusting 6 20.0
2015-Mar-03 14:02 118 2 gusting 6 20.0
2015-Mar-03 13:57 221 2 gusting 6 19.4
2015-Mar-03 13:52 132 2 gusting 6 19.4
2015-Mar-03 13:47 200 2 gusting 5 19.4
2015-Mar-03 13:42 235 0 gusting 5 19.4
2015-Mar-03 13:37 217 1 gusting 6 18.9
2015-Mar-03 13:32 217 2 gusting 7 18.9
2015-Mar-03 13:27 206 4 gusting 7 18.3
2015-Mar-03 13:22 113 5 gusting 8 18.3
2015-Mar-03 13:17 144 5 gusting 8 17.8
2015-Mar-03 13:12 123 5 gusting 7 17.8
2015-Mar-03 13:07 143 4 gusting 7 17.8
2015-Mar-03 13:02 121 4 gusting 8 17.2
2015-Mar-03 12:57 120 4 gusting 8 17.2
2015-Mar-03 12:52 153 4 gusting 8 16.7
2015-Mar-03 12:47 149 3 gusting 6 16.7
2015-Mar-03 12:42 113 3 gusting 6 16.7
2015-Mar-03 12:37 113 4 gusting 6 16.7
2015-Mar-03 12:32 111 3 gusting 6 16.1
2015-Mar-03 12:27 096 2 gusting 6 16.1
2015-Mar-03 12:22 146 2 gusting 6 15.6
2015-Mar-03 12:17 094 2 gusting 6 15.6
2015-Mar-03 12:12 111 3 gusting 6 15.6
2015-Mar-03 12:07 073 2 gusting 6 15.6
2015-Mar-03 12:02 106 2 gusting 6 15.6
2015-Mar-03 11:57 132 2 gusting 6 15.0
2015-Mar-03 11:52 105 1 gusting 6 15.0
2015-Mar-03 11:47 123 1 gusting 6 14.4
2015-Mar-03 11:42 159 3 gusting 5 14.4
2015-Mar-03 11:37 094 3 gusting 5 14.4
2015-Mar-03 11:32 116 2 gusting 5 14.4
2015-Mar-03 11:27 126 0 gusting 4 14.4
2015-Mar-03 11:22 141 0 gusting 5 13.9
2015-Mar-03 11:17 141 0 gusting 5 13.9
2015-Mar-03 11:12 130 0 gusting 3 13.9
2015-Mar-03 11:07 129 13.3
2015-Mar-03 11:02 005 13.3
2015-Mar-03 10:57 005 13.3
2015-Mar-03 10:52 005 12.8
2015-Mar-03 10:47 005 1 gusting 4 12.8
2015-Mar-03 10:42 005 1 gusting 4 12.8
2015-Mar-03 10:37 010 1 gusting 4 12.8
2015-Mar-03 10:32 12.8
2015-Mar-03 10:27 190 0 gusting 2 12.8
2015-Mar-03 10:22 190 0 gusting 2 12.8
2015-Mar-03 10:17 190 12.8
2015-Mar-03 10:12 190 12.8
2015-Mar-03 10:07 190 12.8
2015-Mar-03 10:02 190 12.2
2015-Mar-03 09:57 190 12.2
2015-Mar-03 09:52 190 12.2
2015-Mar-03 09:47 190 12.2
2015-Mar-03 09:42 190 12.2
2015-Mar-03 09:37 190 0 gusting 2 11.7
2015-Mar-03 09:32 190 0 gusting 2 11.7
2015-Mar-03 09:27 190 11.7
2015-Mar-03 09:22 190 11.7
2015-Mar-03 09:17 190 11.7
2015-Mar-03 09:12 190 11.7
2015-Mar-03 09:07 190 11.7
2015-Mar-03 09:02 190 11.7
2015-Mar-03 08:57 190 11.7
2015-Mar-03 08:52 190 11.1
2015-Mar-03 08:47 190 11.1
2015-Mar-03 08:42 190 11.1
2015-Mar-03 08:37 190 11.1
2015-Mar-03 08:32 190 11.1
2015-Mar-03 08:27 190 11.1
2015-Mar-03 08:22 190 0 gusting 2 11.1
2015-Mar-03 08:17 190 0 gusting 1 11.1
2015-Mar-03 08:12 190 11.1
2015-Mar-03 08:07 190 11.1
2015-Mar-03 08:02 190 11.1
2015-Mar-03 07:57 190 11.7
2015-Mar-03 07:52 190 11.7
2015-Mar-03 07:47 190 11.7
2015-Mar-03 07:42 190 11.1
2015-Mar-03 07:37 190 11.1
2015-Mar-03 07:32 190 10.6
2015-Mar-03 07:27 190 10.6
2015-Mar-03 07:22 190 10.6
2015-Mar-03 07:17 190 10.6
2015-Mar-03 07:12 190 10.6
2015-Mar-03 07:07 190 10.6
2015-Mar-03 07:02 190 0 gusting 2 10.6
2015-Mar-03 06:57 190 0 gusting 3 10.6
2015-Mar-03 06:52 190 0 gusting 3 10.6
2015-Mar-03 06:47 190 0 gusting 3 10.6
2015-Mar-03 06:42 190 0 gusting 4 10.6
2015-Mar-03 06:37 190 0 gusting 5 10.6
2015-Mar-03 06:32 190 1 gusting 6 10.6
2015-Mar-03 06:27 190 3 gusting 6 10.6
2015-Mar-03 06:22 164 3 gusting 6 10.6
2015-Mar-03 06:17 164 3 gusting 4 10.6
2015-Mar-03 06:12 169 2 gusting 4 10.6
2015-Mar-03 06:07 169 1 gusting 4 10.6
2015-Mar-03 06:02 169 1 gusting 5 10.6
2015-Mar-03 05:57 169 2 gusting 6 10.6
2015-Mar-03 05:52 169 3 gusting 6 10.6
2015-Mar-03 05:47 169 3 gusting 6 10.6
2015-Mar-03 05:42 192 4 gusting 6 11.1
2015-Mar-03 05:37 183 4 gusting 8 11.1
2015-Mar-03 05:32 165 5 gusting 8 11.1
2015-Mar-03 05:27 180 5 gusting 8 11.1
2015-Mar-03 05:22 151 4 gusting 6 11.1
2015-Mar-03 05:17 148 4 gusting 6 11.1
2015-Mar-03 05:12 142 4 gusting 6 11.1
2015-Mar-03 05:07 148 3 gusting 6 11.1
2015-Mar-03 05:02 146 2 gusting 5 11.1
2015-Mar-03 04:57 148 2 gusting 5 11.1
2015-Mar-03 04:52 147 2 gusting 5 11.1
2015-Mar-03 04:47 159 1 gusting 4 11.1
2015-Mar-03 04:42 162 0 gusting 4 11.1
2015-Mar-03 04:37 158 0 gusting 3 11.1
2015-Mar-03 04:32 158 0 gusting 3 11.1
2015-Mar-03 04:27 158 11.7
2015-Mar-03 04:22 158 0 gusting 3 11.7
2015-Mar-03 04:17 158 0 gusting 5 12.2
2015-Mar-03 04:12 159 0 gusting 5 12.2
2015-Mar-03 04:07 159 1 gusting 5 12.2
2015-Mar-03 04:02 161 0 gusting 3 12.2
2015-Mar-03 03:57 294 11.7
2015-Mar-03 03:52 294 11.7
2015-Mar-03 03:47 294 11.7
2015-Mar-03 03:42 294 11.7
2015-Mar-03 03:37 294 11.7
2015-Mar-03 03:32 294 11.7
2015-Mar-03 03:27 294 11.7
2015-Mar-03 03:22 294 11.7
2015-Mar-03 03:17 294 11.7
2015-Mar-03 03:12 294 0 gusting 2 11.7
2015-Mar-03 03:07 294 0 gusting 2 11.7
2015-Mar-03 03:02 294 1 gusting 2 11.7
2015-Mar-03 02:57 294 1 gusting 2 11.7
2015-Mar-03 02:52 294 0 gusting 2 11.7
2015-Mar-03 02:47 294 1 gusting 2 11.7
2015-Mar-03 02:42 294 0 gusting 1 11.7
2015-Mar-03 02:37 294 11.7
2015-Mar-03 02:32 294 11.7
2015-Mar-03 02:27 294 11.7
2015-Mar-03 02:22 294 11.7
2015-Mar-03 02:17 294 12.2
2015-Mar-03 02:12 294 12.8
2015-Mar-03 02:07 294 12.8
2015-Mar-03 02:02 294 12.8